Regional Weather Roundup
Issued by NWS

Home | Current Version | Previous Version | Text Only | Print | Product List | Glossary Off
Versions: 1 2 3 4 5 6 7 8 9 10 11 12 13 14 15 16 17 18 19 20 21 22 23 24 25 26 27 28 29 30 31 32 33 34 35 36 37 38 39 40 41 42 43 44 45 46 47 48 49 50

000
ASUS43 KLMK 191810
RWRKY
KENTUCKY REGIONAL WEATHER ROUNDUP
NATIONAL WEATHER SERVICE LOUISVILLE KY
200 PM EDT THU OCT 19 2017

NOTE "FAIR" INDICATES FEW OR NO CLOUDS BELOW 12,000 FEET
WITH NO SIGNIFICANT WEATHER AND/OR OBSTRUCTIONS TO VISIBILITY.

KYZ001>023-026-027-061>063-070>075-191900-
WESTERN AND SOUTH CENTRAL KENTUCKY

CITY           SKY/WX    TMP DP  RH WIND       PRES   REMARKS
PADUCAH        FAIR      75  48  38 SW9       30.23F
HENDERSON      FAIR      74  52  46 SW12      30.24F
OWENSBORO      FAIR      72  50  45 SW5       30.25F
HOPKINSVILLE   FAIR      72  48  43 W6        30.26F
BOWLING GREEN  FAIR      72  49  44 SW10      30.28F
GLASGOW        FAIR      71  47  42 CALM      30.28F
$$

KYZ024-025-028>034-038-045-046-053-191900-
NORTH CENTRAL KENTUCKY

CITY           SKY/WX    TMP DP  RH WIND       PRES   REMARKS
LOUISVILLE/SDF FAIR      73  49  42 S12       30.24F
LOUISVILLE/LOU FAIR      71  52  50 SW9       30.25F
FORT KNOX      FAIR      72  49  42 SW8       30.24F
$$

KYZ035>037-039>044-047>052-055>060-089>105-191900-
NORTHEAST KENTUCKY

CITY           SKY/WX    TMP DP  RH WIND       PRES   REMARKS
LEXINGTON      FAIR      70  50  49 SW10      30.27F
COVINGTON      FAIR      70  52  52 SW12G17   30.22F
FRANKFORT      FAIR      71  48  43 VRB7      30.25F
$$

KYZ054-064>069-076>088-106>120-191900-
SOUTHEAST KENTUCKY

CITY           SKY/WX    TMP DP  RH WIND       PRES   REMARKS
JACKSON        FAIR      68  46  45 VRB5      30.29F
LONDON         FAIR      66  44  45 SW6       30.31F
SOMERSET       FAIR      66  45  45 W5        30.32F
MIDDLESBORO    FAIR      69  46  43 CALM      30.32F
MONTICELLO     FAIR      68  47  46 W12       30.32F
$$




USA.gov is the U.S. government's official web portal to all federal, state and local government web resources and services.